THORAD AGENA D DEB, 42546

Orbit data source: Space-Track

THORAD AGENA D DEB, 42546 is space debris in LEO originally from a launch on Wed, 08 Apr 1970 UTC launched from the Air Force Western Test Range (AFWTR). Debris objects in space refer to the collection of defunct objects orbiting the Earth. Examples of debris include non-operational satellites, rocket bodies, and fragments generated from explosions, collisions, or faulty payload assembly.

Loading next visibility...
THORAD AGENA D DEB details
Identifier
42546, 1970-025TC
Orbit
LEO
Last TLE update22 hours ago
Origin
Flag of USNASA LeRC (US)
ManufacturerUnknown
MissionSpacecraft
Bus & MotorUnknown
MassUnknown
Launch date (UTC)
1970-04-08 (55 years ago)
Launch vehicleUnknown
Launch site
Air Force Western Test Range (AFWTR)
Object type
Payload
Rocket body
Debris
Shape & HBRUnknown
Radar Cross SectionSmall (<0.1 m²)

Expand to show TLE details & history

TLE from 22 hours ago
0 THORAD AGENA D DEB
1 42546U 70025TC  24339.22766407  .00001938  00000-0  24824-2 0  9993
2 42546 100.1363 162.0176 0055965 262.6582  96.8196 13.63661372548241
Epoch: 2024-12-04T05:27Z
Definitive object data (Epoch: 2024-12-04T05:27:50.175Z)
Latitude
Longitude6.5327°
Altitude1,030.352 km
Speed7.334 km/s
True Right ascension10h 48m 04s
True Declination0° 00' 00"
Sunlit
Object was in daylight at TLE epoch
Visualization TLE readout
Latitude-13.63534°
Longitude-174.9824°
Altitude1,011.377 km
Speed7.354 km/s
Apparent Right ascension19h 50m 52s
Apparent Declination-50° 14' 38"
Sunlit
Object is in daylight
Visualization observer readout
Local Sidereal Time01:30:04
Azimuth225.456° WSW
Elevation-26.67°
Doppler factor1
Orbital elements
Apogee altitude1,061.124 km
Perigee altitude978.32 km
Semi-major axis7,397.859 km
Eccentricity0.0055965
Inclination100.1363°
RAAN162.0176°
Arg. of periapsis262.6582°
True anomaly97.45583°
Mean anomaly96.8196°
Eccentric anomaly97.13777°
Mean motion3.41102 °/min
BSTAR0.0024824
Orbital period105.54 mins
Loading maneuver chart data...

THORAD AGENA D DEB Visibility forecast

Observer location: undefined°, undefined

Span
Click to sort rows by Start time (UTC) header in descending order
Start Az.
Max El. time (UTC)
Max El. Az.
Max El.
End time (UTC)
End Az.
11 mins2024-12-05 11:30:49.185Z135.119° SSE2024-12-05 11:36:49.185Z64.393° ENE34.525°2024-12-05 11:41:49.185Z1.311° NNE
9 mins2024-12-05 13:16:49.185Z211.664° SW2024-12-05 13:20:49.185Z262.654° W27.588°2024-12-05 13:25:49.185Z320.637° NNW
8 mins2024-12-06 00:21:49.185Z50.035° ENE2024-12-06 00:25:49.185Z103.297° ESE25.96°2024-12-06 00:29:49.185Z149.219° SSE
10 mins2024-12-06 02:04:49.185Z358.304° N2024-12-06 02:09:49.185Z286.188° WNW35.461°2024-12-06 02:14:49.185Z225.163° WSW
|